| time (UTC) | temp F | wind direction | speed MPH | gust MPH | rain 1hr in | rain 24hr in | rain mn in | humidity % | barometer mb |
| 20260509191255 | 80 | 236 | 1.0 | 6.0 | 0.00 | 0.00 | 0.00 | 42 | 1012.2 |
| 20260509191011 | 80 | 228 | 1.0 | 6.0 | 0.00 | 0.00 | 0.00 | 42 | 1012.3 |
| 20260509190245 | 80 | 279 | 1.0 | 6.0 | 0.00 | 0.00 | 0.00 | 44 | 1012.3 |
| 20260509185737 | 80 | 175 | 0.0 | 5.0 | 0.00 | 0.00 | 0.00 | 43 | 1012.3 |
| 20260509185230 | 80 | 256 | 0.0 | 5.0 | 0.00 | 0.00 | 0.00 | 45 | 1012.3 |
| 20260509184724 | 79 | 185 | 0.0 | 5.0 | 0.00 | 0.00 | 0.00 | 46 | 1012.4 |
| 20260509184218 | 78 | 161 | 0.0 | 5.0 | 0.00 | 0.00 | 0.00 | 48 | 1012.4 |
| 20260509183945 | 78 | 288 | 1.0 | 6.0 | 0.00 | 0.00 | 0.00 | 55 | 1012.4 |
| 20260509183427 | 78 | 115 | 1.0 | 6.0 | 0.00 | 0.00 | 0.00 | 48 | 1012.4 |
| 20260509182702 | 77 | 237 | 1.0 | 4.0 | 0.00 | 0.00 | 0.00 | 51 | 1012.3 |
| 20260509182154 | 78 | 346 | 0.0 | 4.0 | 0.00 | 0.00 | 0.00 | 57 | 1012.3 |
| 20260509181649 | 78 | 36 | 0.0 | 3.0 | 0.00 | 0.00 | 0.00 | 55 | 1012.3 |
| 20260509181142 | 77 | 287 | 0.0 | 3.0 | 0.00 | 0.00 | 0.00 | 55 | 1012.4 |
| 20260509180636 | 76 | 12 | 0.0 | 5.0 | 0.00 | 0.00 | 0.00 | 57 | 1012.5 |
| 20260509180130 | 75 | 192 | 0.0 | 5.0 | 0.00 | 0.00 | 0.00 | 59 | 1012.5 |
| 20260509175626 | 74 | 224 | 0.0 | 5.0 | 0.00 | 0.00 | 0.00 | 62 | 1012.4 |
| 20260509175119 | 73 | 263 | 0.0 | 5.0 | 0.00 | 0.00 | 0.00 | 64 | 1012.5 |
| 20260509174612 | 72 | 28 | 0.0 | 4.0 | 0.00 | 0.00 | 0.00 | 65 | 1012.6 |
| 20260509174106 | 72 | 77 | 0.0 | 4.0 | 0.00 | 0.00 | 0.00 | 66 | 1012.6 |
| 20260509173600 | 71 | 11 | 0.0 | 4.0 | 0.00 | 0.00 | 0.00 | 67 | 1012.7 |
| 20260509173054 | 71 | 325 | 0.0 | 4.0 | 0.00 | 0.00 | 0.00 | 69 | 1012.7 |
| 20260509172549 | 70 | 0 | 0.0 | 4.0 | 0.00 | 0.00 | 0.00 | 69 | 1012.6 |
| 20260509172042 | 70 | 331 | 0.0 | 4.0 | 0.00 | 0.00 | 0.00 | 69 | 1012.6 |
| 20260509171541 | 69 | 355 | 0.0 | 5.0 | 0.00 | 0.00 | 0.00 | 71 | 1012.6 |
| 20260509171258 | 69 | 10 | 0.0 | 5.0 | 0.00 | 0.00 | 0.00 | 71 | 1012.6 |
| 20260509170544 | 68 | 9 | 1.0 | 5.0 | 0.00 | 0.00 | 0.00 | 72 | 1012.7 |
| 20260509170044 | 68 | 27 | 1.0 | 5.0 | 0.00 | 0.00 | 0.00 | 73 | 1012.6 |
| 20260509165542 | 68 | 310 | 1.0 | 4.0 | 0.00 | 0.00 | 0.00 | 73 | 1012.6 |
| 20260509165042 | 67 | 37 | 0.0 | 2.0 | 0.00 | 0.00 | 0.00 | 74 | 1012.6 |
| 20260509164544 | 67 | 13 | 0.0 | 2.0 | 0.00 | 0.00 | 0.00 | 75 | 1012.6 |
| 20260509164043 | 66 | 5 | 0.0 | 3.0 | 0.00 | 0.00 | 0.00 | 76 | 1012.6 |
| 20260509163539 | 66 | 323 | 0.0 | 3.0 | 0.00 | 0.00 | 0.00 | 78 | 1012.5 |
| 20260509163040 | 65 | 355 | 0.0 | 2.0 | 0.00 | 0.00 | 0.00 | 79 | 1012.5 |
| 20260509162541 | 65 | 250 | 0.0 | 2.0 | 0.00 | 0.00 | 0.00 | 80 | 1012.5 |
| 20260509162042 | 64 | 317 | 0.0 | 2.0 | 0.00 | 0.00 | 0.00 | 81 | 1012.5 |
| 20260509161542 | 63 | 350 | 0.0 | 3.0 | 0.00 | 0.00 | 0.00 | 82 | 1012.6 |
| 20260509161043 | 63 | 0 | 0.0 | 3.0 | 0.00 | 0.00 | 0.00 | 83 | 1012.5 |
| 20260509160540 | 63 | 31 | 0.0 | 3.0 | 0.00 | 0.00 | 0.00 | 84 | 1012.5 |
| 20260509160038 | 62 | 336 | 0.0 | 3.0 | 0.00 | 0.00 | 0.00 | 85 | 1012.5 |
| 20260509155539 | 62 | 317 | 0.0 | 0.0 | 0.00 | 0.00 | 0.00 | 87 | 1012.5 |
| 20260509155037 | 61 | 61 | 0.0 | 0.0 | 0.00 | 0.00 | 0.00 | 90 | 1012.5 |
| 20260509154537 | 60 | 286 | 0.0 | 1.0 | 0.00 | 0.00 | 0.00 | 93 | 1012.5 |
| 20260509154036 | 60 | 302 | 0.0 | 1.0 | 0.00 | 0.00 | 0.00 | 94 | 1012.7 |
| 20260509153537 | 59 | 269 | 0.0 | 0.0 | 0.00 | 0.00 | 0.00 | 97 | 1012.8 |
| 20260509153035 | 58 | 95 | 0.0 | 0.0 | 0.00 | 0.00 | 0.00 | 97 | 1012.8 |
| 20260509152534 | 57 | 94 | 0.0 | 0.0 | 0.00 | 0.00 | 0.00 | 97 | 1012.8 |
| 20260509152033 | 57 | 205 | 0.0 | 0.0 | 0.00 | 0.00 | 0.00 | 96 | 1012.7 |
| 20260509151530 | 56 | 217 | 0.0 | 0.0 | 0.00 | 0.00 | 0.00 | 96 | 1012.7 |
| 20260509151032 | 56 | 217 | 0.0 | 0.0 | 0.00 | 0.00 | 0.00 | 96 | 1012.7 |
| 20260509150530 | 56 | 217 | 0.0 | 0.0 | 0.00 | 0.00 | 0.00 | 97 | 1012.8 |
| 20260509150030 | 56 | 212 | 0.0 | 0.0 | 0.00 | 0.00 | 0.00 | 97 | 1012.7 |
| 20260509145753 | 56 | 200 | 0.0 | 0.0 | 0.00 | 0.00 | 0.00 | 97 | 1012.7 |
| 20260509145031 | 56 | 200 | 0.0 | 0.0 | 0.00 | 0.00 | 0.00 | 97 | 1012.7 |
| 20260509144531 | 56 | 200 | 0.0 | 0.0 | 0.00 | 0.00 | 0.00 | 97 | 1012.8 |
| 20260509144029 | 56 | 200 | 0.0 | 0.0 | 0.00 | 0.00 | 0.00 | 97 | 1012.7 |
| 20260509143530 | 56 | 200 | 0.0 | 0.0 | 0.00 | 0.00 | 0.00 | 97 | 1012.8 |
| 20260509143031 | 56 | 200 | 0.0 | 0.0 | 0.00 | 0.00 | 0.00 | 97 | 1012.7 |
| 20260509142531 | 56 | 140 | 0.0 | 0.0 | 0.00 | 0.00 | 0.00 | 97 | 1012.6 |
| 20260509142032 | 56 | 126 | 0.0 | 0.0 | 0.00 | 0.00 | 0.00 | 97 | 1012.7 |
| 20260509141531 | 56 | 126 | 0.0 | 0.0 | 0.00 | 0.00 | 0.00 | 97 | 1012.6 |
| 20260509141030 | 56 | 114 | 0.0 | 0.0 | 0.00 | 0.00 | 0.00 | 97 | 1012.6 |
| 20260509140531 | 56 | 114 | 0.0 | 0.0 | 0.00 | 0.00 | 0.00 | 97 | 1012.6 |
| 20260509140031 | 56 | 114 | 0.0 | 0.0 | 0.00 | 0.00 | 0.00 | 97 | 1012.5 |
| 20260509135757 | 56 | 113 | 0.0 | 0.0 | 0.00 | 0.00 | 0.00 | 96 | 1012.6 |
| 20260509135030 | 56 | 181 | 0.0 | 0.0 | 0.00 | 0.00 | 0.00 | 97 | 1012.5 |
| 20260509134530 | 56 | 198 | 0.0 | 0.0 | 0.00 | 0.00 | 0.00 | 97 | 1012.4 |
| 20260509134031 | 56 | 187 | 0.0 | 0.0 | 0.00 | 0.00 | 0.00 | 97 | 1012.4 |
| 20260509133529 | 56 | 138 | 0.0 | 0.0 | 0.00 | 0.00 | 0.00 | 97 | 1012.4 |
| 20260509133030 | 56 | 175 | 0.0 | 0.0 | 0.00 | 0.00 | 0.00 | 97 | 1012.4 |
| 20260509132530 | 56 | 233 | 0.0 | 0.0 | 0.00 | 0.00 | 0.00 | 97 | 1012.4 |
| 20260509132030 | 56 | 233 | 0.0 | 0.0 | 0.00 | 0.00 | 0.00 | 96 | 1012.3 |
| 20260509131530 | 56 | 169 | 0.0 | 0.0 | 0.00 | 0.00 | 0.00 | 96 | 1012.4 |
| 20260509131029 | 56 | 157 | 0.0 | 0.0 | 0.00 | 0.00 | 0.00 | 96 | 1012.4 |
| 20260509130530 | 56 | 188 | 0.0 | 0.0 | 0.00 | 0.00 | 0.00 | 96 | 1012.4 |
| 20260509130254 | 56 | 188 | 0.0 | 0.0 | 0.00 | 0.00 | 0.00 | 97 | 1012.2 |
| 20260509125531 | 56 | 229 | 0.0 | 0.0 | 0.00 | 0.00 | 0.00 | 96 | 1012.2 |
| 20260509125028 | 56 | 229 | 0.0 | 0.0 | 0.00 | 0.00 | 0.00 | 97 | 1012.3 |
| 20260509124526 | 56 | 229 | 0.0 | 0.0 | 0.00 | 0.00 | 0.00 | 97 | 1012.2 |
| 20260509124026 | 56 | 229 | 0.0 | 0.0 | 0.00 | 0.00 | 0.00 | 97 | 1012.2 |
| 20260509123528 | 56 | 229 | 0.0 | 0.0 | 0.00 | 0.00 | 0.00 | 97 | 1012.1 |
| 20260509123026 | 56 | 229 | 0.0 | 0.0 | 0.00 | 0.00 | 0.00 | 97 | 1012.2 |
| 20260509122530 | 56 | 229 | 0.0 | 0.0 | 0.00 | 0.00 | 0.00 | 97 | 1012.1 |
| 20260509122027 | 56 | 229 | 0.0 | 0.0 | 0.00 | 0.00 | 0.00 | 96 | 1012.0 |
| 20260509121528 | 56 | 229 | 0.0 | 0.0 | 0.00 | 0.00 | 0.00 | 96 | 1012.0 |
| 20260509121026 | 56 | 229 | 0.0 | 0.0 | 0.00 | 0.00 | 0.00 | 96 | 1012.1 |
| 20260509120525 | 56 | 237 | 0.0 | 0.0 | 0.00 | 0.00 | 0.00 | 97 | 1012.0 |
| 20260509120025 | 56 | 254 | 0.0 | 0.0 | 0.00 | 0.00 | 0.00 | 96 | 1012.0 |
| 20260509115527 | 56 | 258 | 0.0 | 0.0 | 0.00 | 0.00 | 0.00 | 96 | 1012.1 |
| 20260509115028 | 56 | 178 | 0.0 | 0.0 | 0.00 | 0.00 | 0.00 | 96 | 1012.1 |
| 20260509114529 | 56 | 178 | 0.0 | 0.0 | 0.00 | 0.00 | 0.00 | 96 | 1012.0 |
| 20260509114027 | 56 | 178 | 0.0 | 0.0 | 0.00 | 0.00 | 0.00 | 96 | 1012.1 |
| 20260509113526 | 56 | 178 | 0.0 | 0.0 | 0.00 | 0.00 | 0.00 | 97 | 1011.9 |
| 20260509113028 | 56 | 207 | 0.0 | 0.0 | 0.00 | 0.00 | 0.00 | 96 | 1011.8 |
| 20260509112524 | 56 | 116 | 0.0 | 0.0 | 0.00 | 0.00 | 0.00 | 96 | 1011.9 |
| 20260509112023 | 56 | 116 | 0.0 | 0.0 | 0.00 | 0.00 | 0.00 | 96 | 1011.9 |
| 20260509111521 | 56 | 116 | 0.0 | 0.0 | 0.00 | 0.00 | 0.00 | 96 | 1011.9 |
| 20260509111246 | 56 | 116 | 0.0 | 0.0 | 0.00 | 0.00 | 0.00 | 96 | 1011.9 |
| 20260509110524 | 56 | 116 | 0.0 | 0.0 | 0.00 | 0.00 | 0.00 | 96 | 1011.9 |
| 20260509110021 | 56 | 134 | 0.0 | 0.0 | 0.00 | 0.00 | 0.00 | 96 | 1011.9 |
| 20260509105523 | 56 | 233 | 0.0 | 0.0 | 0.00 | 0.00 | 0.00 | 96 | 1012.0 |
| 20260509105023 | 56 | 233 | 0.0 | 0.0 | 0.00 | 0.00 | 0.00 | 96 | 1012.1 |
| 20260509104523 | 56 | 233 | 0.0 | 0.0 | 0.00 | 0.00 | 0.00 | 97 | 1012.2 |
| 20260509104020 | 56 | 233 | 0.0 | 0.0 | 0.00 | 0.00 | 0.00 | 96 | 1012.2 |
| 20260509103519 | 56 | 239 | 0.0 | 0.0 | 0.00 | 0.00 | 0.00 | 96 | 1012.2 |
| 20260509103019 | 56 | 211 | 0.0 | 0.0 | 0.00 | 0.00 | 0.00 | 96 | 1012.3 |
| 20260509102519 | 56 | 211 | 0.0 | 0.0 | 0.00 | 0.00 | 0.00 | 96 | 1012.4 |
| 20260509102018 | 56 | 208 | 0.0 | 0.0 | 0.00 | 0.00 | 0.00 | 96 | 1012.4 |
| 20260509101736 | 56 | 182 | 0.0 | 0.0 | 0.00 | 0.00 | 0.00 | 96 | 1012.5 |
| 20260509101020 | 56 | 208 | 0.0 | 0.0 | 0.00 | 0.00 | 0.00 | 96 | 1012.4 |
| 20260509100519 | 56 | 208 | 0.0 | 0.0 | 0.00 | 0.00 | 0.00 | 96 | 1012.3 |
| 20260509100020 | 56 | 150 | 0.0 | 0.0 | 0.00 | 0.00 | 0.00 | 96 | 1012.3 |
| 20260509095515 | 56 | 146 | 0.0 | 0.0 | 0.00 | 0.00 | 0.00 | 96 | 1012.3 |
| 20260509095013 | 55 | 146 | 0.0 | 0.0 | 0.00 | 0.00 | 0.00 | 96 | 1012.3 |
| 20260509094514 | 55 | 146 | 0.0 | 2.0 | 0.00 | 0.00 | 0.00 | 96 | 1012.3 |
| 20260509094014 | 55 | 146 | 0.0 | 2.0 | 0.00 | 0.00 | 0.00 | 96 | 1012.4 |
| 20260509093514 | 55 | 112 | 0.0 | 2.0 | 0.00 | 0.00 | 0.00 | 96 | 1012.4 |
| 20260509093015 | 55 | 112 | 0.0 | 2.0 | 0.00 | 0.00 | 0.00 | 96 | 1012.5 |
| 20260509092517 | 56 | 207 | 0.0 | 0.0 | 0.00 | 0.00 | 0.00 | 96 | 1012.5 |
| 20260509092016 | 56 | 207 | 0.0 | 0.0 | 0.00 | 0.00 | 0.00 | 96 | 1012.5 |
| 20260509091515 | 56 | 243 | 0.0 | 0.0 | 0.00 | 0.00 | 0.00 | 96 | 1012.6 |
| 20260509091012 | 56 | 243 | 0.0 | 0.0 | 0.00 | 0.00 | 0.00 | 96 | 1012.7 |
| 20260509090511 | 56 | 243 | 0.0 | 0.0 | 0.00 | 0.00 | 0.00 | 96 | 1012.7 |
| 20260509090237 | 56 | 243 | 0.0 | 0.0 | 0.00 | 0.00 | 0.00 | 96 | 1012.7 |
| 20260509085511 | 55 | 243 | 0.0 | 0.0 | 0.00 | 0.00 | 0.00 | 96 | 1012.7 |
| 20260509085010 | 55 | 243 | 0.0 | 0.0 | 0.00 | 0.00 | 0.00 | 96 | 1012.7 |
| 20260509084510 | 55 | 236 | 0.0 | 0.0 | 0.00 | 0.00 | 0.00 | 96 | 1012.8 |
| 20260509084009 | 55 | 242 | 0.0 | 0.0 | 0.00 | 0.00 | 0.00 | 96 | 1012.9 |
| 20260509083509 | 55 | 170 | 0.0 | 0.0 | 0.00 | 0.00 | 0.00 | 95 | 1012.9 |
| 20260509083011 | 55 | 180 | 0.0 | 0.0 | 0.00 | 0.00 | 0.00 | 95 | 1012.9 |
| 20260509082506 | 55 | 219 | 0.0 | 0.0 | 0.00 | 0.00 | 0.00 | 95 | 1012.9 |
| 20260509082006 | 55 | 225 | 0.0 | 0.0 | 0.00 | 0.00 | 0.00 | 95 | 1012.9 |
| 20260509081506 | 55 | 218 | 0.0 | 0.0 | 0.00 | 0.00 | 0.00 | 95 | 1013.0 |
| 20260509081006 | 55 | 216 | 0.0 | 0.0 | 0.00 | 0.00 | 0.00 | 95 | 1013.1 |
| 20260509080505 | 55 | 216 | 0.0 | 0.0 | 0.00 | 0.00 | 0.00 | 95 | 1013.2 |
| 20260509080006 | 55 | 163 | 0.0 | 0.0 | 0.00 | 0.00 | 0.00 | 95 | 1013.0 |
| 20260509075507 | 55 | 163 | 0.0 | 0.0 | 0.00 | 0.00 | 0.00 | 95 | 1013.0 |
| 20260509075007 | 55 | 163 | 0.0 | 2.0 | 0.00 | 0.00 | 0.00 | 95 | 1013.1 |
| 20260509074507 | 55 | 159 | 0.0 | 2.0 | 0.00 | 0.00 | 0.00 | 95 | 1013.2 |
| 20260509074004 | 55 | 159 | 0.0 | 2.0 | 0.00 | 0.00 | 0.00 | 95 | 1013.1 |
| 20260509073503 | 55 | 177 | 0.0 | 2.0 | 0.00 | 0.00 | 0.00 | 95 | 1013.2 |
| 20260509073003 | 55 | 163 | 0.0 | 2.0 | 0.00 | 0.00 | 0.00 | 94 | 1013.2 |
| 20260509072503 | 55 | 184 | 0.0 | 4.0 | 0.00 | 0.00 | 0.00 | 94 | 1013.3 |
| 20260509072003 | 55 | 170 | 0.0 | 4.0 | 0.00 | 0.00 | 0.00 | 94 | 1013.2 |
| 20260509071505 | 55 | 145 | 0.0 | 0.0 | 0.00 | 0.00 | 0.00 | 94 | 1013.3 |
| 20260509071004 | 55 | 145 | 0.0 | 0.0 | 0.00 | 0.00 | 0.00 | 94 | 1013.3 |
| 20260509070505 | 54 | 46 | 0.0 | 0.0 | 0.00 | 0.00 | 0.00 | 93 | 1013.4 |
| 20260509070228 | 55 | 46 | 0.0 | 0.0 | 0.00 | 0.00 | 0.00 | 92 | 1013.6 |
| 20260509065500 | 55 | 46 | 0.0 | 0.0 | 0.00 | 0.00 | 0.00 | 93 | 1013.7 |
| 20260509064954 | 55 | 46 | 0.0 | 0.0 | 0.00 | 0.00 | 0.00 | 92 | 1013.7 |
| 20260509064711 | 55 | 46 | 0.0 | 0.0 | 0.00 | 0.00 | 0.00 | 92 | 1013.7 |
| 20260509063942 | 55 | 46 | 0.0 | 0.0 | 0.00 | 0.00 | 0.00 | 92 | 1013.6 |
| 20260509063435 | 55 | 46 | 0.0 | 0.0 | 0.00 | 0.00 | 0.00 | 91 | 1013.6 |
| 20260509062930 | 55 | 46 | 0.0 | 0.0 | 0.00 | 0.00 | 0.00 | 92 | 1013.6 |
| 20260509062425 | 55 | 46 | 0.0 | 0.0 | 0.00 | 0.00 | 0.00 | 93 | 1013.6 |
| 20260509061919 | 55 | 46 | 0.0 | 0.0 | 0.00 | 0.00 | 0.00 | 92 | 1013.7 |
| 20260509061412 | 56 | 46 | 0.0 | 0.0 | 0.00 | 0.00 | 0.00 | 92 | 1013.7 |
| 20260509060908 | 56 | 46 | 0.0 | 0.0 | 0.00 | 0.00 | 0.00 | 92 | 1013.6 |
| 20260509060400 | 56 | 46 | 0.0 | 0.0 | 0.00 | 0.00 | 0.00 | 93 | 1013.6 |
| 20260509055855 | 56 | 46 | 0.0 | 0.0 | 0.00 | 0.00 | 0.00 | 93 | 1013.6 |
| 20260509055616 | 56 | 46 | 0.0 | 0.0 | 0.00 | 0.00 | 0.00 | 93 | 1013.7 |
| 20260509054842 | 56 | 46 | 0.0 | 0.0 | 0.00 | 0.00 | 0.00 | 93 | 1013.7 |
| 20260509054336 | 56 | 46 | 0.0 | 0.0 | 0.00 | 0.00 | 0.00 | 92 | 1013.7 |
| 20260509053829 | 56 | 46 | 0.0 | 0.0 | 0.00 | 0.00 | 0.00 | 92 | 1013.8 |
| 20260509053324 | 56 | 46 | 0.0 | 0.0 | 0.00 | 0.00 | 0.00 | 92 | 1013.8 |
| 20260509052818 | 56 | 46 | 0.0 | 0.0 | 0.00 | 0.00 | 0.00 | 91 | 1013.8 |
| 20260509052312 | 56 | 46 | 0.0 | 0.0 | 0.00 | 0.00 | 0.00 | 91 | 1013.9 |
| 20260509051806 | 56 | 46 | 0.0 | 0.0 | 0.00 | 0.00 | 0.00 | 91 | 1013.9 |
| 20260509051301 | 56 | 46 | 0.0 | 0.0 | 0.00 | 0.00 | 0.00 | 91 | 1014.0 |
| 20260509050754 | 57 | 46 | 0.0 | 0.0 | 0.00 | 0.00 | 0.00 | 91 | 1013.9 |
| 20260509050248 | 57 | 46 | 0.0 | 0.0 | 0.00 | 0.00 | 0.00 | 91 | 1013.8 |
| 20260509045743 | 57 | 46 | 0.0 | 0.0 | 0.00 | 0.00 | 0.00 | 91 | 1013.8 |
| 20260509045457 | 57 | 46 | 0.0 | 0.0 | 0.00 | 0.00 | 0.00 | 91 | 1013.9 |
| 20260509044731 | 57 | 46 | 0.0 | 0.0 | 0.00 | 0.00 | 0.00 | 91 | 1013.8 |
| 20260509044224 | 57 | 46 | 0.0 | 0.0 | 0.00 | 0.00 | 0.00 | 91 | 1013.8 |
| 20260509043718 | 57 | 46 | 0.0 | 0.0 | 0.00 | 0.00 | 0.00 | 90 | 1013.7 |
| 20260509043212 | 57 | 46 | 0.0 | 0.0 | 0.00 | 0.00 | 0.00 | 90 | 1013.7 |
| 20260509042706 | 57 | 46 | 0.0 | 0.0 | 0.00 | 0.00 | 0.00 | 90 | 1013.4 |
| 20260509042200 | 58 | 46 | 0.0 | 0.0 | 0.00 | 0.00 | 0.00 | 90 | 1013.4 |
| 20260509041654 | 58 | 46 | 0.0 | 0.0 | 0.00 | 0.00 | 0.00 | 90 | 1013.4 |
| 20260509041149 | 58 | 46 | 0.0 | 0.0 | 0.00 | 0.00 | 0.00 | 89 | 1013.6 |
| 20260509040642 | 58 | 46 | 0.0 | 0.0 | 0.00 | 0.00 | 0.00 | 89 | 1013.6 |
| 20260509040135 | 58 | 46 | 0.0 | 0.0 | 0.00 | 0.00 | 0.00 | 89 | 1013.4 |
| 20260509040108 | 58 | 46 | 0.0 | 0.0 | 0.00 | 0.00 | 0.00 | 89 | 1013.6 |
| 20260509035124 | 58 | 46 | 0.0 | 0.0 | 0.00 | 0.00 | 0.00 | 87 | 1013.4 |
| 20260509034845 | 59 | 46 | 0.0 | 0.0 | 0.00 | 0.00 | 0.00 | 87 | 1013.3 |
| 20260509034333 | 59 | 46 | 0.0 | 0.0 | 0.00 | 0.00 | 0.00 | 87 | 1013.2 |
| 20260509033606 | 59 | 46 | 0.0 | 0.0 | 0.00 | 0.00 | 0.00 | 86 | 1013.1 |
| 20260509033100 | 60 | 46 | 0.0 | 0.0 | 0.00 | 0.00 | 0.00 | 86 | 1013.1 |
| 20260509032819 | 60 | 46 | 0.0 | 0.0 | 0.00 | 0.00 | 0.00 | 85 | 1013.0 |
| 20260509032048 | 60 | 46 | 0.0 | 0.0 | 0.00 | 0.00 | 0.00 | 83 | 1013.1 |
| 20260509031802 | 61 | 46 | 0.0 | 0.0 | 0.00 | 0.00 | 0.00 | 82 | 1013.1 |
| 20260509031036 | 62 | 46 | 0.0 | 0.0 | 0.00 | 0.00 | 0.00 | 81 | 1013.1 |
| 20260509030530 | 62 | 46 | 0.0 | 0.0 | 0.00 | 0.00 | 0.00 | 80 | 1013.1 |
| 20260509030024 | 63 | 46 | 0.0 | 0.0 | 0.00 | 0.00 | 0.00 | 78 | 1013.0 |
| 20260509025518 | 64 | 46 | 0.0 | 0.0 | 0.00 | 0.00 | 0.00 | 77 | 1012.9 |
| 20260509025012 | 64 | 46 | 0.0 | 0.0 | 0.00 | 0.00 | 0.00 | 76 | 1012.8 |
| 20260509024506 | 65 | 46 | 0.0 | 0.0 | 0.00 | 0.00 | 0.00 | 75 | 1012.7 |
| 20260509024000 | 66 | 46 | 0.0 | 0.0 | 0.00 | 0.00 | 0.00 | 73 | 1012.7 |
| 20260509023453 | 67 | 169 | 0.0 | 0.0 | 0.00 | 0.00 | 0.00 | 72 | 1012.8 |
| 20260509022948 | 67 | 169 | 0.0 | 0.0 | 0.00 | 0.00 | 0.00 | 71 | 1012.7 |
| 20260509022442 | 68 | 169 | 0.0 | 0.0 | 0.00 | 0.00 | 0.00 | 70 | 1012.7 |
| 20260509021936 | 68 | 169 | 0.0 | 0.0 | 0.00 | 0.00 | 0.00 | 69 | 1012.6 |
| 20260509021432 | 69 | 191 | 0.0 | 0.0 | 0.00 | 0.00 | 0.00 | 68 | 1012.7 |
| 20260509020924 | 69 | 185 | 0.0 | 0.0 | 0.00 | 0.00 | 0.00 | 67 | 1012.7 |
| 20260509020418 | 70 | 170 | 0.0 | 2.0 | 0.00 | 0.00 | 0.00 | 66 | 1012.6 |
| 20260509015912 | 70 | 163 | 0.0 | 2.0 | 0.00 | 0.00 | 0.00 | 66 | 1012.6 |
| 20260509015406 | 71 | 210 | 0.0 | 2.0 | 0.00 | 0.00 | 0.00 | 65 | 1012.5 |
| 20260509015122 | 71 | 210 | 0.0 | 2.0 | 0.00 | 0.00 | 0.00 | 64 | 1012.6 |
| 20260509014354 | 71 | 254 | 0.0 | 2.0 | 0.00 | 0.00 | 0.00 | 64 | 1012.4 |
| 20260509013848 | 72 | 221 | 0.0 | 2.0 | 0.00 | 0.00 | 0.00 | 63 | 1012.4 |
| 20260509013604 | 72 | 256 | 0.0 | 3.0 | 0.00 | 0.00 | 0.00 | 63 | 1012.6 |
| 20260509012837 | 72 | 200 | 0.0 | 3.0 | 0.00 | 0.00 | 0.00 | 64 | 1012.5 |
| 20260509012330 | 71 | 225 | 0.0 | 3.0 | 0.00 | 0.00 | 0.00 | 64 | 1012.5 |
| 20260509011824 | 71 | 190 | 0.0 | 3.0 | 0.00 | 0.00 | 0.00 | 64 | 1012.5 |
| 20260509011318 | 71 | 244 | 0.0 | 3.0 | 0.00 | 0.00 | 0.00 | 64 | 1012.4 |
| 20260509010812 | 71 | 246 | 0.0 | 2.0 | 0.00 | 0.00 | 0.00 | 64 | 1012.5 |
| 20260509010310 | 72 | 143 | 0.0 | 2.0 | 0.00 | 0.00 | 0.00 | 64 | 1012.4 |
| 20260509005801 | 72 | 220 | 0.0 | 2.0 | 0.00 | 0.00 | 0.00 | 63 | 1012.6 |
| 20260509005255 | 72 | 216 | 0.0 | 2.0 | 0.00 | 0.00 | 0.00 | 63 | 1012.4 |
| 20260509005015 | 72 | 225 | 0.0 | 2.0 | 0.00 | 0.00 | 0.00 | 63 | 1012.4 |
| 20260509004243 | 73 | 192 | 0.0 | 2.0 | 0.00 | 0.00 | 0.00 | 62 | 1012.4 |
| 20260509003739 | 72 | 248 | 0.0 | 2.0 | 0.00 | 0.00 | 0.00 | 63 | 1012.4 |
| 20260509003231 | 72 | 260 | 0.0 | 5.0 | 0.00 | 0.00 | 0.00 | 62 | 1012.4 |
| 20260509002724 | 73 | 166 | 0.0 | 5.0 | 0.00 | 0.00 | 0.00 | 62 | 1012.5 |
| 20260509002221 | 73 | 225 | 1.0 | 6.0 | 0.00 | 0.00 | 0.00 | 61 | 1012.4 |
| 20260509001712 | 74 | 174 | 1.0 | 6.0 | 0.00 | 0.00 | 0.00 | 61 | 1012.4 |
| 20260509001211 | 74 | 142 | 1.0 | 6.0 | 0.00 | 0.00 | 0.00 | 60 | 1012.5 |
| 20260509000701 | 74 | 259 | 0.0 | 9.0 | 0.00 | 0.00 | 0.00 | 60 | 1012.6 |
| 20260509000154 | 74 | 167 | 0.0 | 9.0 | 0.00 | 0.00 | 0.00 | 60 | 1012.7 |
| 20260508235650 | 74 | 225 | 1.0 | 10.0 | 0.00 | 0.00 | 0.00 | 60 | 1012.5 |
| 20260508235410 | 74 | 220 | 1.0 | 10.0 | 0.00 | 0.00 | 0.00 | 60 | 1012.5 |
| 20260508234637 | 75 | 219 | 1.0 | 7.0 | 0.00 | 0.00 | 0.00 | 59 | 1012.6 |
| 20260508234353 | 75 | 234 | 1.0 | 10.0 | 0.00 | 0.00 | 0.00 | 60 | 1012.6 |
| 20260508233624 | 74 | 259 | 1.0 | 10.0 | 0.00 | 0.00 | 0.00 | 60 | 1012.5 |
| 20260508233119 | 74 | 193 | 2.0 | 10.0 | 0.00 | 0.00 | 0.00 | 60 | 1012.6 |
| 20260508232612 | 74 | 223 | 2.0 | 10.0 | 0.00 | 0.00 | 0.00 | 60 | 1012.6 |
| 20260508232108 | 74 | 229 | 1.0 | 8.0 | 0.00 | 0.00 | 0.00 | 60 | 1012.7 |
| 20260508231600 | 75 | 157 | 2.0 | 9.0 | 0.00 | 0.00 | 0.00 | 59 | 1012.8 |
| 20260508231056 | 76 | 174 | 1.0 | 9.0 | 0.00 | 0.00 | 0.00 | 58 | 1012.8 |
| 20260508230549 | 76 | 238 | 1.0 | 8.0 | 0.00 | 0.00 | 0.00 | 58 | 1012.8 |
| 20260508230043 | 76 | 165 | 1.0 | 6.0 | 0.00 | 0.00 | 0.00 | 58 | 1012.8 |
| 20260508225537 | 76 | 196 | 1.0 | 6.0 | 0.00 | 0.00 | 0.00 | 58 | 1012.7 |
| 20260508225030 | 76 | 225 | 1.0 | 7.0 | 0.00 | 0.00 | 0.00 | 57 | 1012.7 |
| 20260508224526 | 76 | 251 | 1.0 | 8.0 | 0.00 | 0.00 | 0.00 | 57 | 1012.9 |
| 20260508224020 | 77 | 226 | 2.0 | 7.0 | 0.00 | 0.00 | 0.00 | 57 | 1012.9 |
| 20260508223512 | 77 | 164 | 2.0 | 10.0 | 0.00 | 0.00 | 0.00 | 56 | 1012.9 |
| 20260508223008 | 78 | 154 | 1.0 | 10.0 | 0.00 | 0.00 | 0.00 | 55 | 1013.0 |
| 20260508222504 | 78 | 155 | 1.0 | 11.0 | 0.00 | 0.00 | 0.00 | 56 | 1012.9 |
| 20260508221955 | 77 | 251 | 2.0 | 11.0 | 0.00 | 0.00 | 0.00 | 57 | 1012.9 |
| 20260508221449 | 78 | 173 | 3.0 | 11.0 | 0.00 | 0.00 | 0.00 | 56 | 1012.9 |
| 20260508221159 | 78 | 166 | 3.0 | 11.0 | 0.00 | 0.00 | 0.00 | 55 | 1013.1 |
| 20260508220437 | 78 | 212 | 3.0 | 10.0 | 0.00 | 0.00 | 0.00 | 55 | 1013.1 |
| 20260508215930 | 78 | 247 | 3.0 | 10.0 | 0.00 | 0.00 | 0.00 | 55 | 1013.1 |
| 20260508215424 | 79 | 238 | 2.0 | 10.0 | 0.00 | 0.00 | 0.00 | 55 | 1013.0 |
| 20260508214918 | 79 | 198 | 3.0 | 10.0 | 0.00 | 0.00 | 0.00 | 54 | 1013.1 |
| 20260508214412 | 79 | 250 | 4.0 | 10.0 | 0.00 | 0.00 | 0.00 | 54 | 1013.2 |
| 20260508213906 | 79 | 246 | 3.0 | 10.0 | 0.00 | 0.00 | 0.00 | 55 | 1013.2 |
| 20260508213400 | 79 | 242 | 3.0 | 10.0 | 0.00 | 0.00 | 0.00 | 54 | 1013.2 |
| 20260508213119 | 79 | 180 | 4.0 | 10.0 | 0.00 | 0.00 | 0.00 | 55 | 1013.2 |
| 20260508212349 | 78 | 238 | 4.0 | 9.0 | 0.00 | 0.00 | 0.00 | 56 | 1013.1 |
| 20260508211843 | 78 | 278 | 4.0 | 11.0 | 0.00 | 0.00 | 0.00 | 55 | 1013.1 |
| 20260508211336 | 79 | 261 | 4.0 | 11.0 | 0.00 | 0.00 | 0.00 | 55 | 1013.3 |
| 20260508210831 | 79 | 263 | 4.0 | 11.0 | 0.00 | 0.00 | 0.00 | 55 | 1013.3 |
| 20260508210326 | 79 | 256 | 4.0 | 11.0 | 0.00 | 0.00 | 0.00 | 54 | 1013.4 |
| 20260508210300 | 80 | 224 | 3.0 | 10.0 | 0.00 | 0.00 | 0.00 | 53 | 1013.4 |
| 20260508205312 | 80 | 253 | 3.0 | 10.0 | 0.00 | 0.00 | 0.00 | 52 | 1013.6 |
| 20260508204806 | 80 | 244 | 2.0 | 9.0 | 0.00 | 0.00 | 0.00 | 52 | 1013.6 |
| 20260508204303 | 80 | 227 | 2.0 | 9.0 | 0.00 | 0.00 | 0.00 | 52 | 1013.4 |
| 20260508203756 | 80 | 271 | 2.0 | 9.0 | 0.00 | 0.00 | 0.00 | 53 | 1013.4 |
| 20260508203250 | 80 | 243 | 1.0 | 6.0 | 0.00 | 0.00 | 0.00 | 53 | 1013.7 |
| 20260508202743 | 80 | 244 | 1.0 | 5.0 | 0.00 | 0.00 | 0.00 | 53 | 1013.7 |
| 20260508202719 | 80 | 270 | 0.0 | 4.0 | 0.00 | 0.00 | 0.00 | 52 | 1013.7 |
| 20260508201731 | 80 | 256 | 0.0 | 4.0 | 0.00 | 0.00 | 0.00 | 54 | 1013.7 |
| 20260508201224 | 79 | 219 | 0.0 | 8.0 | 0.00 | 0.00 | 0.00 | 55 | 1013.7 |
| 20260508200718 | 78 | 164 | 0.0 | 8.0 | 0.00 | 0.00 | 0.00 | 56 | 1013.8 |
| 20260508200213 | 78 | 271 | 1.0 | 8.0 | 0.00 | 0.00 | 0.00 | 56 | 1013.9 |
| 20260508195707 | 78 | 196 | 1.0 | 8.0 | 0.00 | 0.00 | 0.00 | 58 | 1013.9 |
| 20260508195200 | 77 | 239 | 1.0 | 7.0 | 0.00 | 0.00 | 0.00 | 57 | 1013.9 |
| 20260508194655 | 77 | 311 | 1.0 | 7.0 | 0.00 | 0.00 | 0.00 | 58 | 1014.0 |
| 20260508194149 | 77 | 270 | 2.0 | 8.0 | 0.00 | 0.00 | 0.00 | 58 | 1014.2 |
| 20260508193645 | 77 | 250 | 1.0 | 8.0 | 0.00 | 0.00 | 0.00 | 59 | 1014.1 |
| 20260508193136 | 76 | 236 | 2.0 | 8.0 | 0.00 | 0.00 | 0.00 | 61 | 1014.2 |
| 20260508192630 | 76 | 248 | 1.0 | 8.0 | 0.00 | 0.00 | 0.00 | 61 | 1014.3 |
| 20260508192125 | 76 | 23 | 0.0 | 3.0 | 0.00 | 0.00 | 0.00 | 63 | 1014.3 |
| 20260508191619 | 75 | 348 | 1.0 | 4.0 | 0.00 | 0.00 | 0.00 | 64 | 1014.5 |
| 20260508191337 | 75 | 298 | 0.0 | 4.0 | 0.00 | 0.00 | 0.00 | 65 | 1014.6 |